sat.trackr.live / text

‹ back to catalog

KUIPER-00099

NORAD 65138 · 2025-171G

PAYLOAD ACTIVE UNKNOWN

§ Identity

Operator
Country
US
Launch date
2025-08-11
Launch site
AFETR
Launch vehicle
Mass (kg)
RCS (m²)

External: N2YO · Heavens-Above · Gunter

§ Orbital elements

Epoch: 2026-09-21T18:08:12.011712Z

Period
97.30 min
Inclination
51.9034°
Eccentricity
0.0000354
Mean motion
14.79932427 rev/d
Perigee alt
629.3 km
Apogee alt
629.8 km
Semi-major
7,007.7 km
B*
2.9737e-4
RAAN
6.1066°
Arg perigee
112.1810°
Mean anomaly
247.9190°
Rev number
6,199

§ Raw data

KUIPER-000991 65138U 25171G   26264.75569458  .00002047  00000+0  29737-3 0  99912 65138  51.9034   6.1066 0000354 112.1810 247.9190 14.79932427 61997

JSON: /api/v1/satellites/65138 · /tle

For live sub-satellite position, see the globe view (requires WebGL).

§ Visibility from observer

Set your observer location to see the next 7 days of passes ≥ 10°. The values pass through the URL so the page stays shareable.

No JS? Fill the form by hand. The geolocation button needs JavaScript.